Location: Newark
(55.7083°N, 13.1992°E)
Time: 12:38:29
(UTC+00:00)

Transit 4A - Pass Details

Date: 18 February 2020
Orbit: 871 x 973 km, 66.8° (Epoch: 05 April)

Event Time Altitude Azimuth Distance (km) Brightness Sun altitude
Exits shadow 02:54:01 39° 346° (NNW) 1,282 8.6 -30.0°
Drops below altitude 10° 02:59:00 10° 43° (NE) 2,531 11.0 -29.4°
Sets 03:01:39 0° 51° (NE) 3,473 12.0 -29.0°
